TimeEDT,TemperatureF,Dew PointF,Humidity,Sea Level PressureIn,VisibilityMPH,Wind Direction,Wind SpeedMPH,Gust SpeedMPH,PrecipitationIn,Events,Conditions,WindDirDegrees,DateUTC
12:15 AM,59.0,51.8,77,29.62,10.0,West,3.5,-,N/A,,Overcast,260,2012-10-16 04:15:00
12:35 AM,59.0,50.0,72,29.62,10.0,WNW,4.6,-,N/A,,Overcast,300,2012-10-16 04:35:00
12:55 AM,59.0,50.0,72,29.62,10.0,WNW,5.8,-,N/A,,Overcast,290,2012-10-16 04:55:00
1:15 AM,57.2,50.0,77,29.62,10.0,WSW,3.5,-,N/A,,Overcast,240,2012-10-16 05:15:00
1:35 AM,57.2,50.0,77,29.61,10.0,Calm,Calm,-,N/A,,Overcast,0,2012-10-16 05:35:00
1:55 AM,55.4,50.0,82,29.62,10.0,WSW,4.6,-,N/A,,Overcast,240,2012-10-16 05:55:00
2:15 AM,55.4,46.4,72,29.63,10.0,West,8.1,-,N/A,,Overcast,270,2012-10-16 06:15:00
2:35 AM,55.4,46.4,72,29.62,10.0,West,3.5,-,N/A,,Overcast,270,2012-10-16 06:35:00
2:55 AM,53.6,44.6,72,29.62,10.0,West,5.8,-,N/A,,Mostly Cloudy,270,2012-10-16 06:55:00
3:15 AM,53.6,42.8,67,29.64,10.0,Calm,Calm,-,N/A,,Mostly Cloudy,0,2012-10-16 07:15:00
3:35 AM,53.6,42.8,67,29.63,10.0,Calm,Calm,-,N/A,,Overcast,0,2012-10-16 07:35:00
3:55 AM,53.6,42.8,67,29.61,10.0,NNW,5.8,-,N/A,,Overcast,330,2012-10-16 07:55:00
4:15 AM,51.8,42.8,71,29.62,10.0,WNW,4.6,-,N/A,,Mostly Cloudy,300,2012-10-16 08:15:00
4:35 AM,51.8,39.2,62,29.62,10.0,NW,9.2,17.3,N/A,,Overcast,320,2012-10-16 08:35:00
4:55 AM,51.8,37.4,58,29.61,10.0,NNW,4.6,-,N/A,,Mostly Cloudy,330,2012-10-16 08:55:00
5:15 AM,51.8,37.4,58,29.62,10.0,NNW,4.6,-,N/A,,Partly Cloudy,330,2012-10-16 09:15:00
5:35 AM,50.0,35.6,58,29.61,10.0,WNW,9.2,-,N/A,,Clear,290,2012-10-16 09:35:00
5:55 AM,48.2,35.6,62,29.63,10.0,WNW,4.6,-,N/A,,Clear,290,2012-10-16 09:55:00
6:15 AM,48.2,35.6,62,29.63,10.0,WNW,6.9,-,N/A,,Partly Cloudy,290,2012-10-16 10:15:00
6:35 AM,48.2,35.6,62,29.64,10.0,West,5.8,-,N/A,,Mostly Cloudy,270,2012-10-16 10:35:00
6:55 AM,48.2,35.6,62,29.64,10.0,West,5.8,-,N/A,,Overcast,270,2012-10-16 10:55:00
7:35 AM,48.2,35.6,62,29.65,10.0,West,4.6,-,N/A,,Overcast,280,2012-10-16 11:35:00
8:15 AM,46.4,35.6,66,29.66,10.0,WNW,8.1,-,N/A,,Overcast,290,2012-10-16 12:15:00
8:35 AM,46.4,35.6,66,29.67,10.0,WNW,6.9,-,N/A,,Overcast,290,2012-10-16 12:35:00
9:15 AM,46.4,33.8,62,29.68,10.0,NW,10.4,-,N/A,,Overcast,310,2012-10-16 13:15:00
9:35 AM,46.4,32.0,57,29.69,10.0,WNW,13.8,-,N/A,,Mostly Cloudy,300,2012-10-16 13:35:00
9:55 AM,46.4,30.2,53,29.69,10.0,WNW,12.7,21.9,N/A,,Mostly Cloudy,300,2012-10-16 13:55:00
10:15 AM,46.4,32.0,57,29.69,10.0,NW,11.5,18.4,N/A,,Overcast,310,2012-10-16 14:15:00
10:35 AM,46.4,30.2,53,29.70,10.0,NW,13.8,20.7,N/A,,Overcast,310,2012-10-16 14:35:00
10:55 AM,46.4,30.2,53,29.70,10.0,NW,13.8,21.9,N/A,,Overcast,310,2012-10-16 14:55:00
11:15 AM,48.2,30.2,50,29.70,10.0,NNW,12.7,24.2,N/A,,Overcast,330,2012-10-16 15:15:00
11:35 AM,48.2,32.0,54,29.71,10.0,WNW,13.8,23.0,N/A,,Overcast,300,2012-10-16 15:35:00
11:56 AM,48.2,32.0,54,29.71,10.0,NW,10.4,20.7,N/A,,Overcast,320,2012-10-16 15:56:00
12:15 PM,48.2,30.2,50,29.71,10.0,NW,13.8,23.0,N/A,,Mostly Cloudy,320,2012-10-16 16:15:00
12:55 PM,50.0,30.2,47,29.70,10.0,North,15.0,27.6,N/A,,Overcast,350,2012-10-16 16:55:00
1:15 PM,51.8,30.2,44,29.70,10.0,NNW,17.3,24.2,N/A,,Overcast,330,2012-10-16 17:15:00
1:35 PM,50.0,30.2,47,29.70,10.0,North,16.1,28.8,N/A,,Overcast,350,2012-10-16 17:35:00
1:55 PM,51.8,30.2,44,29.70,10.0,North,12.7,25.3,N/A,,Scattered Clouds,350,2012-10-16 17:55:00
2:15 PM,51.8,32.0,47,29.69,10.0,North,13.8,23.0,N/A,,Mostly Cloudy,350,2012-10-16 18:15:00
2:35 PM,51.8,30.2,44,29.69,10.0,NW,16.1,24.2,N/A,,Mostly Cloudy,310,2012-10-16 18:35:00
2:55 PM,51.8,32.0,47,29.70,10.0,NNW,13.8,23.0,N/A,,Mostly Cloudy,330,2012-10-16 18:55:00
3:15 PM,53.6,32.0,44,29.70,10.0,NNW,15.0,21.9,N/A,,Partly Cloudy,340,2012-10-16 19:15:00
3:35 PM,53.6,32.0,44,29.70,10.0,NNW,18.4,24.2,N/A,,Clear,340,2012-10-16 19:35:00
3:55 PM,53.6,32.0,44,29.71,10.0,NNW,15.0,19.6,N/A,,Clear,340,2012-10-16 19:55:00
4:15 PM,53.6,32.0,44,29.72,10.0,North,12.7,18.4,N/A,,Clear,350,2012-10-16 20:15:00
4:35 PM,53.6,32.0,44,29.72,10.0,NNW,11.5,-,N/A,,Clear,340,2012-10-16 20:35:00
4:55 PM,53.6,32.0,44,29.73,10.0,North,11.5,-,N/A,,Clear,350,2012-10-16 20:55:00
5:15 PM,51.8,32.0,47,29.73,10.0,WNW,5.8,-,N/A,,Clear,300,2012-10-16 21:15:00
5:35 PM,51.8,32.0,47,29.74,10.0,NW,6.9,-,N/A,,Clear,310,2012-10-16 21:35:00
5:55 PM,51.8,32.0,47,29.75,10.0,Calm,Calm,-,N/A,,Clear,0,2012-10-16 21:55:00
6:15 PM,50.0,33.8,54,29.76,10.0,NNW,4.6,-,N/A,,Clear,340,2012-10-16 22:15:00
6:35 PM,48.2,32.0,54,29.77,10.0,North,3.5,-,N/A,,Clear,360,2012-10-16 22:35:00
6:55 PM,46.4,33.8,62,29.78,10.0,Calm,Calm,-,N/A,,Clear,0,2012-10-16 22:55:00
7:15 PM,46.4,33.8,62,29.79,10.0,NNE,4.6,-,N/A,,Clear,20,2012-10-16 23:15:00
7:35 PM,46.4,33.8,62,29.80,10.0,NNW,4.6,-,N/A,,Clear,330,2012-10-16 23:35:00
7:55 PM,44.6,33.8,66,29.80,10.0,Calm,Calm,-,N/A,,Clear,0,2012-10-16 23:55:00
8:15 PM,42.8,33.8,70,29.81,10.0,NNW,4.6,-,N/A,,Clear,340,2012-10-17 00:15:00
8:35 PM,42.8,33.8,70,29.82,10.0,Calm,Calm,-,N/A,,Clear,0,2012-10-17 00:35:00
8:55 PM,44.6,33.8,66,29.83,10.0,ENE,3.5,-,N/A,,Clear,60,2012-10-17 00:55:00
9:15 PM,42.8,33.8,70,29.83,10.0,Calm,Calm,-,N/A,,Clear,0,2012-10-17 01:15:00
9:35 PM,41.0,33.8,76,29.84,10.0,ENE,3.5,-,N/A,,Clear,60,2012-10-17 01:35:00
9:55 PM,39.2,33.8,81,29.85,10.0,Calm,Calm,-,N/A,,Clear,0,2012-10-17 01:55:00
10:35 PM,37.4,32.0,81,29.87,10.0,Calm,Calm,-,N/A,,Clear,0,2012-10-17 02:35:00
10:55 PM,37.4,33.8,87,29.87,10.0,Calm,Calm,-,N/A,,Clear,0,2012-10-17 02:55:00
11:15 PM,37.4,32.0,81,29.88,10.0,West,3.5,-,N/A,,Clear,270,2012-10-17 03:15:00
11:35 PM,35.6,33.8,93,29.87,10.0,Calm,Calm,-,N/A,,Clear,0,2012-10-17 03:35:00